| time (UTC) | temp F | wind direction | speed knots | gust knots | rain 1hr in | rain 24hr in | rain mn in | humidity % | barometer mb |
| 20260504150602 | 84 | 22 | 0.0 | 0.0 | 0.00 | 0.00 | 0.00 | 74 | 998.7 |
| 20260504141103 | 84 | 90 | 0.0 | 0.0 | 0.00 | 0.00 | 0.00 | 72 | 998.3 |
| 20260504140602 | 84 | 22 | 0.0 | 0.0 | 0.00 | 0.00 | 0.00 | 72 | 998.3 |
| 20260504140104 | 84 | 90 | 0.0 | 0.0 | 0.00 | 0.00 | 0.00 | 72 | 998.1 |
| 20260504130703 | 85 | 90 | 0.0 | 0.0 | 0.00 | 0.00 | 0.00 | 71 | 996.7 |
| 20260504130218 | 85 | 90 | 0.0 | 0.0 | 0.00 | 0.00 | 0.00 | 71 | 996.6 |
| 20260504120217 | 85 | 22 | 0.0 | 0.0 | 0.00 | 0.00 | 0.00 | 73 | 995.7 |
| 20260504110719 | 85 | 90 | 0.0 | 5.2 | 0.00 | 0.00 | 0.00 | 74 | 995.2 |
| 20260504081715 | 100 | 0 | 0.0 | 8.7 | 0.00 | 0.00 | 0.00 | 49 | 993.6 |
| 20260504081217 | 101 | 22 | 3.5 | 7.0 | 0.00 | 0.00 | 0.00 | 49 | 993.6 |
| 20260504080215 | 102 | 22 | 2.6 | 5.2 | 0.00 | 0.00 | 0.00 | 49 | 993.7 |
| 20260504070214 | 104 | 0 | 0.0 | 4.3 | 0.00 | 0.00 | 0.00 | 48 | 994.4 |
| 20260504050713 | 99 | 22 | 0.0 | 4.3 | 0.00 | 0.00 | 0.00 | 53 | 997.4 |
| 20260504045713 | 99 | 22 | 0.0 | 3.5 | 0.00 | 0.00 | 0.00 | 53 | 997.3 |
| 20260504045215 | 99 | 22 | 0.9 | 7.0 | 0.00 | 0.00 | 0.00 | 54 | 997.4 |
| 20260504044713 | 99 | 22 | 0.0 | 0.0 | 0.00 | 0.00 | 0.00 | 54 | 997.3 |
| 20260504044213 | 98 | 22 | 0.0 | 0.0 | 0.00 | 0.00 | 0.00 | 55 | 997.5 |
| 20260504043713 | 98 | 22 | 0.0 | 1.7 | 0.00 | 0.00 | 0.00 | 55 | 997.6 |
| 20260504043213 | 98 | 22 | 0.0 | 2.6 | 0.00 | 0.00 | 0.00 | 55 | 997.5 |
| 20260504042715 | 98 | 22 | 0.0 | 0.9 | 0.00 | 0.00 | 0.00 | 56 | 997.7 |
| 20260504041713 | 97 | 22 | 0.0 | 3.5 | 0.00 | 0.00 | 0.00 | 56 | 997.7 |
| 20260504041213 | 97 | 90 | 7.0 | 7.0 | 0.00 | 0.00 | 0.00 | 56 | 997.8 |
| 20260504040713 | 97 | 22 | 0.0 | 3.5 | 0.00 | 0.00 | 0.00 | 57 | 997.7 |
| 20260504035712 | 97 | 22 | 0.0 | 4.3 | 0.00 | 0.00 | 0.00 | 57 | 998.0 |
| 20260504035212 | 97 | 22 | 0.0 | 0.0 | 0.00 | 0.00 | 0.00 | 58 | 998.0 |
| 20260504034212 | 97 | 22 | 0.0 | 1.7 | 0.00 | 0.00 | 0.00 | 58 | 998.2 |
| 20260504033714 | 97 | 22 | 0.0 | 0.0 | 0.00 | 0.00 | 0.00 | 59 | 998.2 |
| 20260504033212 | 96 | 22 | 0.0 | 1.7 | 0.00 | 0.00 | 0.00 | 59 | 998.0 |
| 20260504032212 | 96 | 22 | 0.0 | 1.7 | 0.00 | 0.00 | 0.00 | 62 | 998.0 |
| 20260504031712 | 95 | 90 | 0.0 | 0.0 | 0.00 | 0.00 | 0.00 | 62 | 998.1 |
| 20260504031214 | 95 | 22 | 0.0 | 1.7 | 0.00 | 0.00 | 0.00 | 62 | 998.2 |
| 20260504030212 | 95 | 22 | 0.0 | 2.6 | 0.00 | 0.00 | 0.00 | 63 | 998.2 |
| 20260504025212 | 94 | 22 | 0.0 | 0.0 | 0.00 | 0.00 | 0.00 | 64 | 998.3 |
| 20260504024714 | 94 | 22 | 0.0 | 2.6 | 0.00 | 0.00 | 0.00 | 65 | 998.4 |
| 20260504024212 | -52 | 22 | 0.0 | 0.0 | 0.00 | 0.00 | 0.00 | 66 | 998.4 |
| 20260504023712 | 93 | 22 | 4.3 | 4.3 | 0.00 | 0.00 | 0.00 | 66 | 998.2 |
| 20260504022712 | 93 | 90 | 0.0 | 3.5 | 0.00 | 0.00 | 0.00 | 67 | 998.4 |
| 20260504022213 | 92 | 22 | 0.0 | 4.3 | 0.00 | 0.00 | 0.00 | 67 | 998.4 |
| 20260504021711 | 92 | 0 | 0.0 | 2.6 | 0.00 | 0.00 | 0.00 | 67 | 998.4 |
| 20260504021212 | 92 | 22 | 2.6 | 3.5 | 0.00 | 0.00 | 0.00 | 68 | 998.3 |
| 20260504020713 | 92 | 22 | 0.0 | 2.6 | 0.00 | 0.00 | 0.00 | 68 | 998.4 |
| 20260504020211 | 35 | 90 | 0.0 | 0.0 | 0.00 | 0.00 | 0.00 | 68 | 998.4 |
| 20260504015713 | 92 | 22 | 0.0 | 2.6 | 0.00 | 0.00 | 0.00 | 69 | 998.3 |
| 20260504014711 | 92 | 22 | 0.0 | 2.6 | 0.00 | 0.00 | 0.00 | 69 | 998.4 |
| 20260504013711 | 92 | 0 | 0.0 | 25.2 | 0.00 | 0.00 | 0.00 | 70 | 998.4 |
| 20260504013213 | 91 | 22 | 0.0 | 1.7 | 0.00 | 0.00 | 0.00 | 69 | 998.3 |
| 20260504012211 | 91 | 22 | 0.0 | 0.0 | 0.00 | 0.00 | 0.00 | 70 | 998.2 |
| 20260504011211 | 90 | 22 | 0.0 | 99.9 | 0.00 | 0.00 | 0.00 | 70 | 998.4 |
| 20260504010718 | 90 | 22 | 0.0 | 0.0 | 0.00 | 0.00 | 0.00 | 70 | 998.4 |
| 20260504010211 | 90 | 22 | 0.0 | 1.7 | 0.00 | 0.00 | 0.00 | 70 | 998.4 |
| 20260504005211 | 89 | 22 | 0.0 | 0.0 | 0.00 | 0.00 | 0.00 | 70 | 998.1 |
| 20260504004711 | 89 | 22 | 0.0 | 0.0 | 0.00 | 0.00 | 0.00 | 70 | 998.1 |
| 20260504004212 | 89 | 22 | 0.0 | 0.0 | 0.00 | 0.00 | 0.00 | 70 | 998.1 |
| 20260504003711 | 89 | 90 | 0.0 | 5.2 | 0.00 | 0.00 | 0.00 | 70 | 998.1 |
| 20260504003210 | 89 | 22 | 0.0 | 0.0 | 0.00 | 0.00 | 0.00 | 70 | 997.9 |
| 20260504002210 | 89 | 22 | 0.0 | 0.0 | 0.00 | 0.00 | 0.00 | 70 | 997.9 |
| 20260504001712 | 89 | 0 | 0.0 | 2.6 | 0.00 | 0.00 | 0.00 | 70 | 997.8 |
| 20260504001211 | 89 | 90 | 0.0 | 4.3 | 0.00 | 0.00 | 0.00 | 71 | 997.8 |
| 20260504000211 | 88 | 22 | 0.0 | 2.6 | 0.00 | 0.00 | 0.00 | 72 | 997.7 |
| 20260503235710 | 88 | 22 | 4.3 | 4.3 | 0.00 | 0.00 | 0.00 | 72 | 997.8 |
| 20260503235212 | 87 | 22 | 0.0 | 0.0 | 0.00 | 0.00 | 0.00 | 73 | 997.6 |
| 20260503234210 | 86 | 22 | 0.0 | 0.0 | 0.00 | 0.00 | 0.00 | 74 | 997.5 |
| 20260503233210 | 85 | 22 | 0.0 | 0.0 | 0.00 | 0.00 | 0.00 | 76 | 997.5 |
| 20260503232712 | 84 | 22 | 0.0 | 0.0 | 0.00 | 0.00 | 0.00 | 76 | 997.4 |
| 20260503231710 | 84 | 0 | 0.0 | 0.0 | 0.00 | 0.00 | 0.00 | 76 | 997.3 |
| 20260503230710 | 84 | 22 | 0.0 | 4.3 | 0.00 | 0.00 | 0.00 | 76 | 997.1 |
| 20260503230211 | 84 | 22 | 5.2 | 6.1 | 0.00 | 0.00 | 0.00 | 76 | 997.0 |
| 20260503225710 | 84 | 22 | 0.0 | 2.6 | 0.00 | 0.00 | 0.00 | 76 | 997.1 |
| 20260503224709 | 84 | 22 | 0.0 | 0.9 | 0.00 | 0.00 | 0.00 | 75 | 997.0 |
| 20260503224209 | 84 | 90 | 3.5 | 3.5 | 0.00 | 0.00 | 0.00 | 75 | 997.0 |
| 20260503223711 | 84 | 22 | 0.0 | 0.9 | 0.00 | 0.00 | 0.00 | 75 | 996.9 |
| 20260503223209 | 84 | 22 | 3.5 | 3.5 | 0.00 | 0.00 | 0.00 | 75 | 996.8 |
| 20260503222709 | 84 | 22 | 0.0 | 0.0 | 0.00 | 0.00 | 0.00 | 75 | 996.7 |
| 20260503221709 | 84 | 22 | 0.0 | 2.6 | 0.00 | 0.00 | 0.00 | 74 | 996.6 |
| 20260503221211 | 84 | 22 | 0.0 | 25.2 | 0.00 | 0.00 | 0.00 | 74 | 996.7 |
| 20260503220709 | 84 | 22 | 0.0 | 1.7 | 0.00 | 0.00 | 0.00 | 74 | 996.6 |
| 20260503215709 | 84 | 292 | 0.0 | 0.0 | 0.00 | 0.00 | 0.00 | 74 | 996.6 |
| 20260503215209 | 85 | 90 | 3.5 | 3.5 | 0.00 | 0.00 | 0.00 | 74 | 996.5 |
| 20260503214711 | 85 | 90 | 0.0 | 0.0 | 0.00 | 0.00 | 0.00 | 74 | 996.4 |
| 20260503214209 | 85 | 22 | 0.0 | 2.6 | 0.00 | 0.00 | 0.00 | 74 | 996.4 |
| 20260503213709 | 85 | 22 | 1.7 | 1.7 | 0.00 | 0.00 | 0.00 | 73 | 996.4 |
| 20260503213209 | 85 | 90 | 1.7 | 3.5 | 0.00 | 0.00 | 0.00 | 73 | 996.4 |
| 20260503212709 | 85 | 22 | 0.0 | 0.0 | 0.00 | 0.00 | 0.00 | 73 | 996.3 |
| 20260503212210 | 85 | 22 | 0.0 | 0.0 | 0.00 | 0.00 | 0.00 | 73 | 996.3 |
| 20260503211709 | 85 | 0 | 0.0 | 0.9 | 0.00 | 0.00 | 0.00 | 73 | 996.3 |
| 20260503211208 | 85 | 22 | 0.0 | 0.0 | 0.00 | 0.00 | 0.00 | 73 | 996.1 |
| 20260503210208 | 85 | 22 | 0.0 | 4.3 | 0.00 | 0.00 | 0.00 | 73 | 996.0 |
| 20260503205710 | 85 | 22 | 0.0 | 1.7 | 0.00 | 0.00 | 0.00 | 73 | 996.0 |
| 20260503205208 | 85 | 22 | 0.0 | 0.0 | 0.00 | 0.00 | 0.00 | 73 | 995.9 |
| 20260503204708 | 85 | 0 | 0.0 | 3.5 | 0.00 | 0.00 | 0.00 | 73 | 995.8 |
| 20260503204208 | 85 | 45 | 0.0 | 99.9 | 0.00 | 0.00 | 0.00 | 73 | 995.8 |
| 20260503203708 | 85 | 90 | 0.0 | 0.0 | 0.00 | 0.00 | 0.00 | 73 | 995.8 |
| 20260503203210 | 85 | 90 | 0.0 | 2.6 | 0.00 | 0.00 | 0.00 | 73 | 996.0 |
| 20260503202208 | 86 | 22 | 0.0 | 0.0 | 0.00 | 0.00 | 0.00 | 72 | 995.9 |
| 20260503201208 | 86 | 0 | 0.0 | 0.0 | 0.00 | 0.00 | 0.00 | 72 | 995.7 |
| 20260503200710 | 86 | 90 | 0.0 | 0.0 | 0.00 | 0.00 | 0.00 | 72 | 996.0 |
| 20260503195708 | 86 | 22 | 0.0 | 0.0 | 0.00 | 0.00 | 0.00 | 72 | 995.8 |
| 20260503194708 | 86 | 22 | 0.0 | 2.6 | 0.00 | 0.00 | 0.00 | 72 | 995.9 |
| 20260503194209 | 86 | 22 | 0.0 | 2.6 | 0.00 | 0.00 | 0.00 | 72 | 995.9 |
| 20260503193207 | 86 | 292 | 0.0 | 0.9 | 0.00 | 0.00 | 0.00 | 72 | 996.2 |
| 20260503192207 | 86 | 22 | 1.7 | 3.5 | 0.00 | 0.00 | 0.00 | 71 | 996.2 |
| 20260503191710 | 87 | 22 | 0.0 | 0.0 | 0.00 | 0.00 | 0.00 | 71 | 996.2 |
| 20260503191207 | 87 | 22 | 0.0 | 0.0 | 0.00 | 0.00 | 0.00 | 71 | 996.3 |
| 20260503190707 | 87 | 90 | 0.0 | 0.0 | 0.00 | 0.00 | 0.00 | 71 | 996.2 |
| 20260503185707 | 87 | 22 | 0.0 | 0.0 | 0.00 | 0.00 | 0.00 | 71 | 996.2 |
| 20260503185209 | 87 | 22 | 0.0 | 0.0 | 0.00 | 0.00 | 0.00 | 71 | 996.4 |
| 20260503184707 | 87 | 90 | 0.0 | 0.0 | 0.00 | 0.00 | 0.00 | 71 | 996.4 |
| 20260503183707 | 87 | 22 | 0.0 | 0.0 | 0.00 | 0.00 | 0.00 | 71 | 996.5 |
| 20260503183207 | 87 | 22 | 0.0 | 0.0 | 0.00 | 0.00 | 0.00 | 71 | 996.4 |
| 20260503182709 | 88 | 22 | 0.0 | 2.6 | 0.00 | 0.00 | 0.00 | 71 | 996.5 |
| 20260503182207 | 88 | 22 | 0.0 | 0.0 | 0.00 | 0.00 | 0.00 | 71 | 996.7 |
| 20260503181207 | 88 | 22 | 0.0 | 0.0 | 0.00 | 0.00 | 0.00 | 71 | 996.6 |
| 20260503180707 | 88 | 22 | 0.0 | 1.7 | 0.00 | 0.00 | 0.00 | 71 | 996.8 |
| 20260503180208 | 88 | 22 | 0.0 | 3.5 | 0.00 | 0.00 | 0.00 | 71 | 996.8 |
| 20260503175206 | 88 | 0 | 0.0 | 0.9 | 0.00 | 0.00 | 0.00 | 70 | 996.8 |
| 20260503174707 | 88 | 22 | 0.0 | 0.0 | 0.00 | 0.00 | 0.00 | 70 | 996.7 |
| 20260503174206 | 88 | 22 | 0.0 | 0.0 | 0.00 | 0.00 | 0.00 | 70 | 996.9 |
| 20260503173708 | 88 | 90 | 0.0 | 0.0 | 0.00 | 0.00 | 0.00 | 70 | 997.1 |
| 20260503173206 | 89 | 90 | 0.0 | 0.0 | 0.00 | 0.00 | 0.00 | 69 | 997.0 |
| 20260503172706 | 89 | 22 | 0.0 | 0.0 | 0.00 | 0.00 | 0.00 | 69 | 997.0 |
| 20260503171706 | 89 | 22 | 0.0 | 0.0 | 0.00 | 0.00 | 0.00 | 69 | 996.8 |
| 20260503171208 | 89 | 22 | 0.0 | 0.0 | 0.00 | 0.00 | 0.00 | 69 | 996.8 |
| 20260503170706 | 89 | 22 | 0.0 | 0.0 | 0.00 | 0.00 | 0.00 | 69 | 996.9 |
| 20260503160205 | 90 | 22 | 0.0 | 1.7 | 0.00 | 0.00 | 0.00 | 68 | 997.1 |